Temperature
8 7 7 7 7 6 6 6 6 6 6 6 6 6 6 6 6 6 7 7 7 7 7 8 8 9 9 9 9 10 11 12 13 14 14 14 14 14 14 15 15 16 16
7 8 8 8 7 7 6 6 6 5 5 5 5 5 5 5 5 5 5 5 5 6 6 7 7 8 8 8 8 9 10 10 12 13 14 14 14 13 13 14 14 15 15
8 8 8 8 7 7 7 6 6 5 5 5 5 4 4 4 4 4 4 4 4 4 4 5 5 6 7 7 8 8 8 9 11 12 12 13 13 13 13 13 14 14 15
8 8 8 8 8 7 7 6 5 5 4 4 4 4 4 3 3 3 3 3 3 3 3 3 3 4 5 5 6 7 8 8 10 11 11 12 12 13 12 13 13 13 14
8 8 8 8 8 8 7 6 5 4 4 4 4 4 4 3 3 3 3 3 3 3 2 2 2 2 3 3 4 5 6 7 9 9 10 10 11 12 12 12 12 13 13
7 8 8 8 8 7 7 6 5 5 4 4 4 4 4 4 4 4 4 4 4 4 3 3 2 2 2 2 2 3 3 5 7 8 8 9 9 10 10 11 12 12 12
7 8 8 8 8 7 7 6 6 5 5 5 4 4 4 4 3 3 3 4 4 4 3 3 2 2 2 1 1 2 2 2 4 6 7 8 8 8 8 8 10 11 11
7 7 7 7 7 7 6 6 6 5 5 4 4 4 4 3 3 3 3 3 3 3 3 3 2 2 1 1 1 1 1 1 2 4 5 6 6 6 6 6 8 10 11
7 7 7 7 7 6 5 5 5 4 4 4 4 4 4 4 4 4 4 4 3 3 3 2 2 1 1 1 0 0 0 0 1 2 2 3 5 5 4 4 6 8 10
6 7 7 6 6 6 6 5 4 4 4 4 4 4 4 4 4 4 3 3 3 3 2 2 1 1 1 0 0 -0 -1 -1 0 0 1 2 3 3 3 4 4 5 7
5 6 6 6 6 6 5 5 4 4 4 4 3 3 3 3 3 3 2 2 2 2 2 1 1 1 0 0 0 -1 -1 -1 -2 -1 -1 0 1 2 2 3 3 3 5
5 5 6 6 6 5 5 4 4 3 3 3 2 2 2 2 1 1 1 1 0 0 -0 -0 -0 -0 -0 -1 -1 -2 -2 -3 -3 -3 -2 -1 -1 0 1 2 2 2 3
5 5 5 5 5 5 5 4 3 2 2 1 1 1 1 1 0 -0 -1 -1 -2 -2 -3 -3 -3 -3 -3 -3 -3 -3 -4 -4 -4 -4 -4 -3 -2 -1 -0 0 1 1 2
4 4 4 4 5 5 4 3 2 1 1 0 0 -0 -0 -1 -1 -2 -2 -3 -4 -5 -5 -6 -6 -6 -6 -6 -6 -6 -6 -5 -5 -5 -5 -4 -3 -2 -2 -1 -0 0 1
4 4 4 4 4 4 4 2 1 1 0 -0 -0 -1 -1 -2 -2 -3 -3 -4 -5 -6 -6 -6 -7 -7 -7 -7 -7 -7 -7 -7 -7 -7 -6 -6 -5 -4 -3 -2 -1 -0 1
4 3 3 3 4 4 3 2 1 0 -0 -0 -1 -1 -2 -2 -3 -3 -4 -5 -6 -7 -7 -7 -8 -8 -8 -8 -8 -8 -8 -8 -8 -8 -7 -7 -6 -5 -4 -3 -2 -1 -0
4 3 3 3 3 3 2 2 1 0 -0 -0 -1 -1 -2 -3 -4 -4 -5 -6 -6 -7 -8 -8 -8 -9 -9 -9 -9 -9 -9 -9 -9 -8 -8 -8 -7 -6 -5 -4 -3 -1 -1
4 3 3 3 3 3 2 1 1 0 0 -0 -1 -2 -3 -3 -4 -5 -6 -6 -7 -8 -8 -9 -9 -9 -9 -9 -10 -10 -10 -9 -9 -9 -9 -8 -8 -7 -6 -5 -3 -2 -1
4 3 3 3 3 3 2 1 0 0 -0 -1 -1 -2 -3 -4 -5 -5 -6 -7 -8 -8 -9 -9 -9 -10 -10 -10 -10 -10 -10 -10 -10 -10 -10 -9 -8 -7 -6 -5 -4 -3 -2
4 3 2 2 2 2 2 1 1 0 -0 -0 -1 -2 -3 -4 -5 -6 -7 -8 -8 -9 -9 -10 -10 -10 -10 -10 -10 -10 -10 -10 -10 -10 -10 -10 -9 -8 -6 -5 -4 -4 -3
4 3 2 2 2 2 2 2 1 1 -0 -1 -2 -3 -4 -5 -6 -7 -8 -8 -9 -9 -9 -10 -10 -10 -10 -10 -11 -11 -11 -10 -11 -10 -10 -10 -10 -9 -8 -6 -5 -4 -4
4 3 2 1 2 2 2 1 1 0 -1 -2 -3 -4 -5 -6 -7 -8 -8 -9 -9 -10 -10 -10 -10 -10 -10 -10 -11 -11 -11 -11 -11 -11 -11 -11 -10 -10 -9 -8 -7 -6 -5
4 3 2 1 2 2 1 1 0 -0 -1 -2 -3 -4 -5 -6 -7 -8 -9 -9 -9 -10 -10 -10 -10 -10 -10 -10 -10 -11 -11 -11 -11 -11 -11 -11 -10 -10 -9 -8 -7 -6 -6
4 3 2 1 2 2 1 1 -0 -1 -1 -2 -3 -4 -5 -6 -7 -8 -9 -9 -10 -10 -10 -10 -10 -10 -10 -10 -10 -10 -11 -11 -11 -11 -11 -11 -10 -10 -10 -9 -8 -7 -6
4 3 2 2 2 1 1 0 -0 -1 -2 -3 -4 -5 -6 -6 -7 -8 -9 -10 -10 -10 -10 -10 -10 -10 -10 -10 -10 -10 -10 -11 -11 -11 -11 -11 -10 -10 -9 -9 -8 -7 -6
4 3 2 2 1 1 1 0 -0 -1 -2 -3 -4 -5 -6 -7 -8 -8 -9 -10 -10 -10 -10 -11 -11 -10 -10 -10 -10 -11 -11 -11 -11 -11 -11 -11 -11 -9 -9 -9 -8 -7 -7
Wind_Speed
7 14 17 19 20 21 21 22 23 24 24 25 26 26 27 27 28 28 29 29 29 29 30 30 31 31 30 30 30 30 30 30 30 31 32 31 28 27 24 21 19 14 15
9 14 17 18 19 20 20 21 22 23 23 24 25 25 26 26 26 27 27 28 28 28 29 29 29 30 30 30 30 30 30 30 30 31 31 27 26 27 26 26 25 19 19
11 14 16 16 17 18 19 20 21 22 23 23 24 25 25 25 25 25 25 26 26 27 27 27 28 29 29 30 30 30 30 30 30 31 28 23 24 26 26 27 27 26 23
12 14 14 15 16 18 19 20 20 21 22 23 23 24 25 25 25 25 25 25 25 26 26 26 26 27 28 28 29 30 30 30 30 30 24 23 23 24 25 26 27 27 26
13 13 13 14 15 17 18 18 19 20 21 22 23 24 24 25 25 25 25 25 26 26 26 26 26 26 26 27 28 29 29 30 30 26 23 24 22 23 24 24 25 27 27
12 12 12 13 14 15 16 18 18 20 21 22 22 24 24 24 25 25 25 26 26 27 27 27 27 27 26 26 27 27 28 28 28 24 23 23 21 23 24 23 24 26 27
10 9 9 11 12 12 14 17 18 19 21 21 22 23 24 24 24 25 25 26 27 27 28 28 28 27 27 27 27 27 26 26 25 24 24 22 22 24 23 23 24 25 26
9 9 8 9 11 11 12 14 16 17 19 20 21 23 24 23 24 25 25 26 27 27 28 28 28 28 28 29 28 27 26 25 24 24 24 22 22 24 23 23 24 25 25
9 8 8 10 10 11 12 12 14 15 17 19 20 23 24 24 25 25 26 27 28 28 29 29 29 29 30 29 28 27 26 26 24 21 21 20 24 25 24 24 25 26 25
8 8 8 10 10 11 11 12 13 15 17 19 20 22 23 23 24 25 26 28 28 29 30 30 29 31 31 29 28 28 28 25 21 21 21 22 27 27 26 26 26 26 26
7 8 9 9 10 11 11 12 13 13 15 17 18 20 21 21 22 22 24 27 27 29 29 29 30 31 30 28 29 29 27 21 23 22 21 24 27 28 28 28 27 27 27
7 6 9 8 8 10 10 11 11 11 13 14 15 17 18 19 20 20 23 25 26 27 27 28 30 28 27 25 27 28 23 24 22 21 22 27 29 30 30 30 29 28 28
8 6 7 5 6 8 9 10 10 10 10 13 13 14 15 16 17 18 19 20 22 23 22 24 23 23 25 25 25 25 25 24 22 22 24 30 31 32 32 32 31 30 29
8 7 5 3 5 6 7 8 9 9 9 11 11 12 13 13 14 16 16 19 19 19 20 20 20 23 24 25 25 25 25 24 24 25 26 31 33 33 33 33 33 32 30
8 7 5 2 4 4 4 6 8 8 8 10 10 10 13 12 12 15 16 17 18 19 18 19 20 20 21 22 22 23 24 26 27 27 27 32 34 35 35 34 34 33 31
8 8 5 3 3 3 4 6 7 7 8 9 9 10 11 12 14 14 15 16 16 18 19 19 19 19 18 18 18 22 24 26 25 27 28 31 34 36 36 35 34 33 32
9 8 6 3 1 2 4 5 7 6 7 7 8 9 10 12 14 14 14 14 16 18 19 18 18 17 15 15 13 19 21 23 25 27 29 29 30 33 35 35 35 33 31
10 8 6 3 0 2 4 6 7 6 6 7 7 8 9 12 14 14 13 13 17 18 17 14 10 6 8 9 10 10 17 20 22 25 28 29 29 29 31 35 35 33 30
10 9 7 5 2 1 4 6 6 6 6 7 7 7 9 11 12 13 13 15 17 16 14 14 8 8 10 10 11 10 8 11 16 24 24 28 30 30 29 31 33 31 29
10 9 7 5 4 1 2 4 5 5 6 7 6 7 9 10 12 13 13 14 16 12 8 7 10 9 9 9 14 14 11 11 13 13 18 22 25 28 26 25 22 21 23
10 9 8 5 3 1 0 2 3 3 4 6 7 7 9 11 12 13 12 13 13 8 7 8 9 10 10 8 11 13 12 11 13 12 11 13 19 25 25 23 17 13 12
11 10 9 7 4 2 1 1 3 4 4 7 7 7 9 11 13 13 12 11 12 8 9 9 9 9 11 9 10 15 14 13 10 13 12 15 16 17 19 22 19 17 14
11 11 9 7 4 3 2 2 3 3 4 3 3 4 9 12 13 13 13 13 12 9 8 9 9 10 12 11 7 8 11 14 17 12 12 13 13 14 15 16 18 17 17
11 10 9 7 5 4 3 2 3 4 4 4 4 4 9 12 13 14 14 13 12 11 8 9 9 9 11 13 11 7 9 11 13 15 11 9 13 15 14 15 14 16 17
11 11 9 8 7 5 4 3 4 5 4 4 5 6 6 9 12 14 14 13 12 11 10 9 9 10 9 11 11 12 12 11 11 11 16 16 13 11 12 14 13 12 17
11 10 9 8 7 6 5 5 5 5 5 6 7 6 5 4 8 12 14 13 13 13 10 9 9 11 10 10 10 10 12 11 12 11 13 16 15 14 12 13 13 12 14
Wind_Direction
23 22 17 14 15 18 20 21 23 24 23 23 22 21 21 19 17 17 15 13 11 10 8 7 5 3 2 1 359 356 354 352 350 349 342 337 339 341 343 345 345 336 334
33 28 21 17 19 21 22 23 23 24 22 22 20 19 18 17 15 14 12 10 8 7 5 4 2 0 359 358 356 354 351 350 348 347 339 338 343 341 346 348 346 340 334
49 41 25 20 23 25 25 24 23 22 20 19 17 15 14 13 12 11 10 8 6 4 3 1 359 357 355 353 352 350 348 347 346 343 339 340 342 336 339 342 343 343 340
60 51 29 26 28 28 26 24 22 20 18 16 14 12 10 9 8 7 7 6 4 1 360 358 356 353 351 349 347 345 344 343 343 342 339 335 335 329 332 337 337 338 338
71 64 38 32 31 30 27 24 21 18 16 13 11 9 7 6 5 4 4 3 1 358 357 355 353 350 348 346 343 341 339 337 338 339 331 327 326 324 325 330 333 333 333
76 71 51 36 33 30 26 23 19 16 13 10 9 8 5 4 3 2 2 0 358 355 354 352 350 347 345 343 339 337 334 333 334 331 325 320 319 318 318 324 328 329 329
81 76 63 41 33 27 23 20 16 13 10 8 7 5 3 2 1 360 359 358 355 352 351 349 347 344 343 340 337 333 331 330 328 325 318 313 313 312 314 319 323 324 323
83 69 58 40 29 21 19 17 11 8 6 4 4 4 2 0 359 358 358 355 352 350 349 347 344 343 341 338 335 332 330 329 325 316 309 308 311 311 311 316 318 317 318
86 71 53 47 30 14 12 13 4 4 4 2 4 3 1 360 358 356 356 352 350 349 347 345 343 342 339 337 335 333 332 328 323 310 310 315 310 306 308 312 312 312 312
108 85 52 44 31 15 3 1 0 2 3 2 3 1 1 359 356 353 352 349 348 347 345 343 343 341 338 338 336 334 332 330 320 320 318 311 303 303 304 306 308 307 307
116 96 72 43 26 13 1 1 357 358 0 0 360 358 358 355 351 348 346 345 345 344 342 341 341 340 340 337 334 331 332 324 320 316 308 301 301 302 303 303 303 303 302
109 90 77 53 27 17 4 353 352 353 357 353 358 356 354 353 347 346 343 341 341 339 339 338 337 339 336 331 330 328 323 318 317 311 307 305 304 302 300 299 298 298 298
109 94 88 73 42 26 0 351 344 344 354 347 351 351 353 350 343 341 340 335 335 334 334 332 333 333 329 327 324 322 319 318 315 312 308 304 301 299 297 295 294 293 293
118 110 93 80 66 38 0 337 332 343 350 338 343 348 354 345 341 341 335 332 332 330 331 333 332 326 324 323 321 318 318 319 316 311 306 302 300 298 295 293 291 290 288
135 125 116 110 75 34 342 327 336 337 338 329 338 350 352 347 342 337 333 330 329 330 333 332 325 322 323 320 317 318 318 315 312 308 306 303 300 298 295 291 289 287 284
143 133 115 86 60 7 350 342 325 327 324 331 337 345 348 352 343 336 331 326 326 331 330 324 321 320 317 315 316 318 315 311 309 308 307 306 301 297 293 290 287 285 281
144 134 128 146 63 1 353 329 311 306 320 325 333 342 348 353 341 336 325 322 324 326 323 320 316 313 315 318 316 313 310 308 306 305 304 301 298 295 291 287 285 282 278
143 142 137 166 41 356 336 308 295 305 321 320 334 339 344 343 335 332 323 319 319 323 319 314 309 315 314 310 308 307 306 304 304 305 304 300 297 292 287 285 283 280 278
154 146 150 151 193 294 307 299 309 318 325 328 331 330 331 333 331 329 320 312 319 318 312 313 322 313 308 308 306 303 303 306 304 303 302 300 298 291 282 277 276 276 275
149 141 153 163 180 204 300 321 319 321 325 317 311 313 323 328 326 323 311 312 316 311 308 308 308 305 304 305 308 307 301 297 300 299 299 305 309 304 295 282 274 274 275
151 155 163 169 168 156 164 329 312 312 304 300 297 306 321 322 319 312 305 307 308 304 300 301 306 307 306 303 307 308 302 293 293 297 300 311 308 308 308 304 295 290 286
166 166 166 168 161 167 152 255 256 268 269 280 285 314 319 313 309 308 305 302 302 300 300 301 305 305 307 310 309 311 310 308 300 304 303 300 302 307 309 309 311 304 296
172 167 167 148 167 189 177 252 283 289 291 303 327 319 308 306 306 305 303 300 300 299 297 299 300 304 308 306 293 298 306 307 311 301 294 296 299 301 300 300 297 292 289
166 146 144 151 183 191 193 238 281 289 291 296 295 284 297 306 309 308 305 303 302 299 294 300 311 302 304 307 305 287 279 288 299 306 304 294 299 301 304 306 306 303 295
149 143 148 159 190 190 196 233 255 271 281 290 293 292 298 305 306 305 305 307 303 301 297 299 304 302 302 301 307 307 301 294 285 290 300 306 305 300 301 302 300 296 291
140 142 152 173 194 189 204 229 243 266 284 295 298 300 300 294 298 302 308 309 305 300 298 301 302 303 303 301 306 307 305 302 298 292 291 296 299 299 298 296 293 289 284
Height
1614 1611 1609 1607 1605 1603 1600 1598 1595 1593 1590 1588 1585 1583 1581 1578 1576 1574 1571 1569 1567 1565 1563 1561 1559 1557 1555 1553 1551 1549 1548 1547 1546 1545 1546 1547 1546 1546 1546 1545 1545 1545 1545
1612 1610 1608 1606 1604 1602 1599 1597 1595 1592 1590 1587 1585 1583 1580 1578 1575 1573 1571 1568 1566 1564 1563 1561 1558 1556 1554 1552 1550 1547 1546 1544 1543 1542 1543 1543 1543 1543 1542 1542 1542 1542 1542
1611 1609 1607 1605 1603 1601 1599 1596 1594 1592 1590 1587 1585 1582 1580 1577 1575 1572 1570 1567 1565 1563 1561 1559 1557 1555 1553 1551 1549 1546 1544 1541 1540 1539 1539 1539 1539 1539 1539 1538 1538 1539 1539
1609 1608 1606 1604 1602 1600 1598 1596 1594 1591 1589 1586 1584 1581 1579 1576 1574 1571 1568 1566 1563 1561 1559 1557 1554 1552 1550 1548 1547 1545 1542 1540 1537 1536 1535 1535 1535 1535 1535 1534 1534 1535 1535
1608 1607 1606 1604 1602 1599 1597 1595 1592 1590 1588 1585 1583 1580 1578 1575 1573 1570 1567 1564 1561 1559 1557 1554 1552 1549 1547 1545 1543 1541 1539 1538 1535 1533 1532 1531 1530 1530 1531 1530 1530 1530 1531
1607 1606 1605 1603 1601 1598 1596 1594 1591 1589 1587 1584 1582 1579 1577 1574 1571 1569 1566 1563 1560 1557 1555 1552 1549 1547 1544 1542 1539 1537 1535 1533 1532 1530 1528 1527 1526 1526 1526 1525 1525 1526 1526
1606 1605 1603 1602 1600 1598 1596 1593 1591 1588 1586 1583 1581 1578 1575 1573 1570 1567 1564 1561 1558 1555 1553 1550 1547 1544 1541 1538 1536 1533 1531 1528 1527 1526 1525 1523 1521 1521 1521 1520 1520 1520 1521
1604 1603 1602 1601 1599 1597 1595 1592 1590 1587 1585 1582 1580 1577 1574 1571 1568 1566 1562 1559 1556 1553 1550 1547 1544 1541 1538 1535 1532 1530 1527 1524 1521 1521 1520 1519 1518 1517 1517 1515 1514 1514 1515
1603 1602 1601 1600 1598 1596 1593 1591 1588 1586 1583 1581 1579 1576 1573 1570 1567 1564 1561 1558 1554 1551 1548 1544 1541 1538 1535 1531 1529 1526 1523 1520 1517 1515 1514 1514 1514 1513 1512 1510 1509 1508 1509
1601 1600 1600 1598 1596 1594 1592 1590 1587 1585 1583 1580 1578 1575 1572 1569 1566 1563 1560 1556 1553 1549 1545 1542 1538 1535 1531 1527 1524 1521 1518 1515 1513 1511 1509 1508 1509 1508 1507 1505 1503 1502 1502
1600 1598 1598 1596 1595 1593 1591 1589 1586 1584 1581 1579 1576 1573 1570 1567 1564 1560 1557 1554 1550 1546 1543 1539 1535 1531 1527 1523 1519 1516 1513 1510 1508 1505 1503 1503 1503 1503 1501 1499 1497 1496 1496
1598 1596 1595 1594 1593 1591 1589 1586 1584 1581 1579 1576 1573 1570 1567 1564 1560 1557 1553 1550 1546 1542 1538 1535 1531 1527 1522 1518 1514 1511 1507 1504 1502 1500 1498 1498 1497 1496 1494 1493 1491 1490 1489
1595 1594 1593 1592 1591 1589 1587 1584 1581 1578 1576 1573 1570 1567 1563 1560 1556 1552 1548 1544 1540 1537 1533 1529 1525 1522 1518 1514 1510 1506 1503 1500 1497 1494 1492 1491 1490 1488 1487 1486 1484 1483 1482
1593 1592 1591 1589 1588 1586 1584 1581 1578 1576 1573 1570 1566 1563 1559 1555 1551 1547 1543 1539 1535 1532 1528 1524 1521 1517 1513 1510 1506 1502 1499 1495 1492 1488 1485 1484 1482 1481 1480 1478 1477 1476 1475
1590 1589 1588 1587 1585 1583 1581 1578 1575 1573 1570 1566 1563 1560 1556 1552 1547 1543 1539 1536 1532 1528 1525 1521 1516 1513 1509 1505 1502 1499 1494 1490 1486 1483 1479 1476 1474 1472 1471 1470 1469 1469 1468
1587 1586 1585 1584 1583 1581 1578 1575 1572 1569 1566 1564 1560 1557 1553 1549 1545 1540 1536 1532 1529 1525 1521 1517 1513 1509 1505 1502 1498 1494 1490 1485 1481 1477 1472 1468 1465 1463 1462 1461 1461 1461 1461
1584 1582 1581 1581 1580 1578 1575 1572 1569 1566 1564 1561 1558 1554 1550 1546 1542 1537 1533 1529 1526 1522 1518 1514 1510 1506 1502 1498 1494 1489 1485 1480 1476 1471 1466 1461 1457 1455 1453 1452 1452 1452 1453
1580 1578 1578 1578 1577 1575 1572 1569 1566 1563 1561 1558 1555 1552 1548 1543 1539 1534 1530 1527 1523 1519 1515 1511 1507 1503 1498 1494 1489 1484 1480 1475 1470 1465 1460 1455 1451 1447 1444 1443 1443 1444 1445
1576 1574 1574 1574 1573 1571 1568 1565 1563 1561 1558 1555 1552 1549 1545 1540 1536 1532 1528 1524 1520 1516 1512 1508 1504 1500 1495 1490 1485 1480 1475 1470 1464 1459 1454 1449 1444 1440 1437 1435 1435 1436 1437
1571 1570 1570 1570 1569 1567 1565 1563 1560 1558 1555 1553 1549 1545 1542 1538 1533 1529 1524 1521 1517 1513 1509 1505 1501 1496 1492 1487 1481 1475 1469 1464 1459 1453 1448 1443 1438 1433 1431 1430 1429 1429 1429
1566 1566 1566 1566 1565 1563 1561 1559 1557 1555 1552 1549 1546 1543 1539 1535 1530 1526 1521 1517 1514 1510 1506 1502 1498 1493 1487 1483 1477 1470 1463 1458 1453 1448 1443 1437 1432 1427 1424 1423 1422 1422 1421
1560 1561 1561 1561 1561 1559 1558 1556 1553 1551 1548 1546 1543 1540 1536 1531 1527 1523 1519 1514 1510 1507 1502 1499 1495 1489 1484 1480 1475 1467 1458 1451 1446 1442 1437 1432 1427 1422 1418 1416 1414 1414 1414
1556 1556 1556 1556 1557 1556 1554 1552 1549 1547 1545 1543 1540 1536 1532 1528 1524 1520 1516 1511 1507 1504 1499 1495 1492 1487 1481 1475 1472 1467 1458 1448 1440 1433 1430 1426 1422 1418 1414 1411 1409 1409 1409
1551 1551 1551 1552 1553 1552 1550 1548 1546 1544 1541 1539 1535 1532 1528 1524 1520 1516 1512 1508 1504 1500 1496 1492 1488 1484 1479 1472 1467 1462 1457 1450 1441 1430 1423 1420 1417 1413 1409 1407 1404 1403 1403
1545 1545 1547 1548 1549 1548 1546 1544 1542 1540 1538 1535 1531 1528 1524 1520 1516 1512 1509 1505 1500 1496 1492 1488 1484 1480 1475 1470 1464 1458 1451 1445 1439 1433 1423 1415 1411 1407 1405 1402 1400 1398 1397
1539 1540 1542 1544 1544 1543 1542 1540 1538 1536 1534 1531 1527 1524 1520 1516 1512 1508 1505 1500 1496 1492 1488 1484 1480 1475 1471 1466 1461 1455 1449 1443 1436 1430 1423 1415 1408 1403 1400 1398 1395 1394 1392